Orbital Elements
Epoch 2011 Oct. 6.0 TT = JDT 2455840.5
T 2011 Sept. 21.08307 TT MPC
q 1.1122163 (2000.0) P Q
z +0.0232513 Peri. 1.88046 -0.33385553 -0.79502194
+/-0.0000021 Node 252.08609 -0.87163964 +0.05583195
e 0.9741395 Incl. 147.84291 -0.35886602 +0.60400572
From 157 observations 2011 Sept. 4-2012 Mar. 26, mean residual 0".5.
|